星链-4205 (STARLINK-4205 )

导读 | 星芒AI

STARLINK-4205 是 SpaceX Starlink 项目中的一颗低轨通信卫星,属于第 21 批部署的星链卫星之一。该卫星于 2022 年发射,运行在约 550 公里的轨道高度,旨在为全球用户提供高速互联网服务。作为星链星座的一部分,STARLINK-4205 采用先进推进系统和激光通信技术,提升网络连接效率与稳定性。该卫星支持 Ku 和 Ka 频段通信,助力偏远地区实现宽带接入,推动全球互联网覆盖的普及与优化。

基本信息
目录编号:
53174
目录名称:
STARLINK-4205
国际标识:
2022-083AU
轨道中心:
EARTH
卫星名称:
星链-4205
卫星全名:
星链-4205 (STARLINK-4205 )
卫星状态:
在轨 (已飞行1253 天)
发射日期:
2022-07-17 UTC
国别 :
美国 (US)
星等 :
--
轨道信息
数据来源 国际轨道数据 AOE轨道数据
星历时间 2025-12-21T04:39:48+0800
8小时前
查看轨道信息
2025-12-17T09:00:00+0800
4天前
查看轨道信息
半长轴 6917.896km 6917.866km
偏心率 0.0001442 0.0001816
轨道倾角 53.216° 53.218°
近地点辐角 95.321° 91.422°
升交点赤经 167.928° 185.080°
平近点角 264.795° 31.626°
近地点 538.761km 538.474km
远地点 540.757km 540.988km
周期 95.438分钟 95.437分钟
每日圈数 15.088351 15.08845
详细信息
固有亮度:
5
最大亮度:
2.5
卫星平台:
Starlink v1.5
覆盖范围:
全球
运营商:
太空探索技术公司
运营商所在国:
美国
制造商(研发单位):
太空探索技术公司
制造商所在国:
美国
使用方式:
暂无
卫星简介
星链(Starlink)计划是由太空探索技术公司(SpaceX)提出的一个巨型低轨卫星互联网星座项目,计划在2019年至2024年间在太空搭建由约1.2万颗卫星组成的“星链”网络,其中1584颗将部署在地球上空550千米处的近地轨道,并从2020年开始工作。该卫星仍在工作。
2D轨道图
3D轨道图
轨道高度分析图
轨道倾角分析图
轨道综合分析图
查看轨道综合分析图